Location: Newark
(45.2500°N, 7.5833°E)
Time: 01:50:59
(UTC+00:00)

SR - Pass Details

Date: 03 February 2020
Orbit: 575 x 880 km, 66.7° (Epoch: 25 February)

Event Time Altitude Azimuth Distance (km) Brightness Sun altitude
Rises 19:57:03 0° 222° (SW) 3,425 ? -35.0°
Reaches altitude 10° 19:59:32 10° 226° (SW) 2,512 ? -35.4°
Enters shadow 20:02:26 30° 237° (WSW) 1,525 ? -35.9°
